Location: Hylvaty SDH
(49.9612°N, 16.4057°E)
Time: 00:47:21
(UTC+01:00)

Altair - Visible Passes

Search period start: 26 January 2020 00:00
Search period end: 05 February 2020 00:00
Orbit: 1502 x 1682 km, 47.2° (Epoch: 25 January)

Date Brightness Start Highest point End Pass type
(mag) Time Alt. Az. Time Alt. Az. Time Alt. Az.
26 Jan 9.9 06:26:36 10° S 06:33:21 21° SE 06:40:10 10° E visible
27 Jan 9.9 06:02:03 10° SSE 06:08:20 19° SE 06:14:41 10° E visible
28 Jan 9.9 05:37:35 10° SSE 05:43:20 17° SE 05:49:07 10° E visible
29 Jan 9.9 05:13:14 10° SSE 05:18:19 15° SE 05:23:28 10° E visible
30 Jan 9.9 04:49:02 10° SSE 04:53:21 14° ESE 04:57:41 10° E visible
30 Jan 9.0 06:46:51 10° SSW 06:55:55 42° SE 07:05:10 10° ENE visible
31 Jan 9.9 04:25:07 10° SE 04:28:21 12° ESE 04:31:37 10° ESE visible
31 Jan 9.0 06:21:55 10° SSW 06:30:49 39° SE 06:39:55 10° ENE visible
01 Feb 10.0 04:02:00 10° SE 04:03:23 10° ESE 04:04:46 10° ESE visible
01 Feb 9.0 05:57:00 10° SSW 06:05:44 37° SE 06:14:39 10° ENE visible
02 Feb 9.0 05:32:07 10° SSW 05:40:39 35° SE 05:49:23 10° E visible
03 Feb 9.0 05:07:16 10° SSW 05:15:35 32° SE 05:24:06 10° E visible
04 Feb 9.0 04:42:27 10° SSW 04:50:31 30° SE 04:58:47 10° E visible
04 Feb 8.2 06:44:18 10° SW 06:54:02 63° SSE 07:04:00 10° E visible
